CW3081 Weather Reports


time (UTC)temp
C
wind
direction
speed
KPH
gust
KPH
rain 1hr
cm
rain 24hr
cm
rain mn
cm
humidity
%
barometer
mb
20260509063046 12 0 0.0 0.0 0.00 0.00 0.00 83 1010.2
20260509061552 13 0 0.0 0.0 0.00 0.00 0.00 81 1010.6
20260509060050 13 0 0.0 0.0 0.00 0.00 0.00 80 1010.7
20260509054549 13 0 0.0 0.0 0.00 0.00 0.00 79 1010.8
20260509053052 13 0 0.0 1.6 0.00 0.00 0.00 78 1010.8
20260509051556 14 0 0.0 1.6 0.00 0.00 0.00 76 1010.8
20260509050045 14 0 0.0 0.0 0.00 0.00 0.00 75 1010.4
20260509044546 15 0 0.0 0.0 0.00 0.00 0.00 74 1010.7
20260509043051 15 0 0.0 1.6 0.00 0.00 0.00 72 1010.6
20260509041542 15 223 0.0 1.6 0.00 0.00 0.00 71 1010.6
20260509040057 15 0 0.0 0.0 0.00 0.00 0.00 70 1010.8
20260509034539 15 0 0.0 0.0 0.00 0.00 0.00 68 1010.8
20260509033042 15 0 0.0 0.0 0.00 0.00 0.00 67 1010.8
20260509031549 16 0 0.0 0.0 0.00 0.00 0.00 66 1010.9
20260509030050 16 0 0.0 0.0 0.00 0.00 0.00 65 1011.1
20260509024545 16 189 0.0 0.0 0.00 0.00 0.00 64 1011.0
20260509023041 16 0 0.0 0.0 0.00 0.00 0.00 63 1010.8
20260509021548 16 189 0.0 0.0 0.00 0.00 0.00 62 1010.9
20260509020047 16 0 0.0 0.0 0.00 0.00 0.00 62 1010.9
20260509014543 16 0 0.0 0.0 0.00 0.00 0.00 63 1010.9
20260509013100 16 0 0.0 0.0 0.00 0.00 0.00 65 1010.7
20260509011554 16 0 0.0 0.0 0.00 0.00 0.00 66 1010.7
20260509010044 17 0 0.0 0.0 0.00 0.00 0.00 65 1010.7
20260509004605 18 0 0.0 0.0 0.00 0.00 0.00 62 1010.7
20260509003051 18 0 0.0 0.0 0.00 0.00 0.00 56 1010.8
20260509001546 20 0 0.0 0.0 0.00 0.00 0.00 55 1010.7
20260509000047 20 186 0.0 1.6 0.00 0.00 0.00 52 1010.8
20260508234549 21 0 0.0 0.0 0.00 0.00 0.00 48 1010.9
20260508233051 21 0 0.0 0.0 0.00 0.00 0.00 45 1011.1
20260508231543 21 186 0.0 1.6 0.00 0.00 0.00 44 1011.0
20260508230056 21 184 0.0 3.2 0.00 0.00 0.00 45 1011.1
20260508224547 21 193 1.6 3.2 0.00 0.00 0.00 42 1011.1
20260508223046 21 0 0.0 4.8 0.00 0.00 0.00 43 1011.1
20260508221550 22 236 0.0 1.6 0.00 0.00 0.00 41 1011.2
20260508220050 22 0 0.0 3.2 0.00 0.00 0.00 42 1011.4
20260508214549 22 218 1.6 3.2 0.00 0.00 0.00 40 1011.4
20260508213045 22 262 1.6 3.2 0.00 0.00 0.00 41 1011.6
20260508211544 22 195 0.0 3.2 0.00 0.00 0.00 41 1011.4
20260508210055 22 153 1.6 3.2 0.00 0.00 0.00 41 1011.6
20260508204552 22 160 1.6 3.2 0.00 0.00 0.00 40 1011.7
20260508203042 22 143 0.0 3.2 0.00 0.00 0.00 41 1012.0
20260508201546 22 157 1.6 4.8 0.00 0.00 0.00 39 1012.2
20260508200049 22 153 0.0 3.2 0.00 0.00 0.00 39 1012.6
20260508194548 21 250 1.6 4.8 0.00 0.00 0.00 41 1012.8
20260508193050 22 224 0.0 4.8 0.00 0.00 0.00 40 1013.0
20260508191546 22 152 1.6 4.8 0.00 0.00 0.00 41 1013.1
20260508190055 22 0 0.0 3.2 0.00 0.00 0.00 42 1013.5
20260508184600 22 141 1.6 4.8 0.00 0.00 0.00 39 1013.6
20260508183044 22 259 0.0 4.8 0.00 0.00 0.00 39 1013.6
20260508181555 22 184 1.6 3.2 0.00 0.00 0.00 39 1014.1
20260508180050 21 167 0.0 4.8 0.00 0.00 0.00 42 1014.5
20260508174547 21 181 0.0 3.2 0.00 0.00 0.00 44 1014.6
20260508173050 21 250 1.6 3.2 0.00 0.00 0.00 40 1015.1
20260508171545 20 146 1.6 3.2 0.00 0.00 0.00 41 1015.2
20260508170043 20 252 0.0 3.2 0.00 0.00 0.00 43 1015.6
20260508164555 19 154 0.0 4.8 0.00 0.00 0.00 48 1015.7
20260508163038 19 248 0.0 1.6 0.00 0.00 0.00 47 1015.9
20260508161551 18 203 0.0 3.2 0.00 0.00 0.00 47 1016.2
20260508160041 18 255 0.0 3.2 0.00 0.00 0.00 49 1016.4
20260508154550 17 0 0.0 3.2 0.00 0.00 0.00 51 1016.7
20260508153048 17 220 0.0 3.2 0.00 0.00 0.00 53 1016.9
20260508151546 17 194 0.0 3.2 0.00 0.00 0.00 60 1016.8
20260508150058 16 146 0.0 4.8 0.00 0.00 0.00 56 1016.9
20260508144603 16 148 1.6 4.8 0.00 0.00 0.00 59 1017.1
20260508143044 15 200 0.0 1.6 0.00 0.00 0.00 60 1017.3
20260508141551 15 5 0.0 1.6 0.00 0.00 0.00 67 1017.3
20260508140053 14 0 0.0 1.6 0.00 0.00 0.00 70 1017.4
20260508134553 13 354 0.0 0.0 0.00 0.00 0.00 72 1017.5
20260508133110 12 0 0.0 0.0 0.00 0.00 0.00 79 1017.5
20260508131550 12 0 0.0 0.0 0.00 0.00 0.00 87 1017.4
20260508130039 9 0 0.0 0.0 0.00 0.00 0.00 96 1017.5
20260508124549 6 0 0.0 0.0 0.00 0.00 0.00 95 1017.4
20260508123059 5 0 0.0 0.0 0.00 0.00 0.00 94 1017.2
20260508121546 5 0 0.0 0.0 0.00 0.00 0.00 94 1017.3
20260508120052 -17 0.0 0.0 0.00 0.00 0.00 1017.0
20260508114549 -17 0.0 0.0 0.00 0.00 0.00 1017.0
20260508113107 -17 0.0 0.0 0.00 0.00 0.00 1016.7
20260508111544 -17 0.0 0.0 0.00 0.00 0.00 1016.6
20260508110054 -17 0.0 0.0 0.00 0.00 0.00 1016.4
20260508104541 4 0 0.0 0.0 0.00 0.00 0.00 93 1016.3
20260508103057 4 0 0.0 0.0 0.00 0.00 0.00 93 1016.1
20260508101600 4 0 0.0 0.0 0.00 0.00 0.00 93 1016.0
20260508100042 4 0 0.0 0.0 0.00 0.00 0.00 93 1015.9
20260508094545 5 0 0.0 0.0 0.00 0.00 0.00 93 1015.9
20260508093043 5 0 0.0 0.0 0.00 0.00 0.00 93 1015.7
20260508091550 5 0 0.0 0.0 0.00 0.00 0.00 92 1015.7
20260508090059 5 0 0.0 0.0 0.00 0.00 0.00 92 1015.7
20260508084545 5 0 0.0 0.0 0.00 0.00 0.00 92 1015.5
20260508083040 5 0 0.0 0.0 0.00 0.00 0.00 92 1015.7
20260508081543 5 0 0.0 0.0 0.00 0.00 0.00 92 1015.7
20260508080044 5 0 0.0 0.0 0.00 0.00 0.00 92 1015.7
20260508074545 6 0 0.0 0.0 0.00 0.00 0.00 92 1016.0
20260508073056 6 0 0.0 0.0 0.00 0.00 0.00 92 1016.1
20260508071555 6 0 0.0 0.0 0.00 0.00 0.00 92 1016.1
20260508070046 6 0 0.0 0.0 0.00 0.00 0.00 92 1016.2
20260508064543 6 0 0.0 0.0 0.00 0.00 0.00 92 1016.2